Location: Barrio Las Umbrías
(40.4173°N, 4.8685°W)
Time: 14:09:30
(UTC+00:00)

Cosmos 2098 Rocket - Pass Details

Date: 17 August 2022
Orbit: 364 x 1146 km, 82.9° (Epoch: 28 September)

Event Time Altitude Azimuth Distance (km) Brightness Sun altitude
Exits shadow 22:40:22 67° 246° (WSW) 1,155 4.2 -31.3°
Maximum altitude 22:40:57 70° 279° (W) 1,140 4.3 -31.4°
Drops below altitude 10° 22:48:10 10° 3° (N) 3,045 7.2 -32.0°
Sets 22:50:57 0° 6° (N) 4,021 8.0 -32.3°
